Other Public Products
Issued by NWS Grand Forks, ND

Home | Current Version | Previous Version | Graphics & Text | Print | Product List | Glossary On
Versions: 1 2 3 4 5 6 7 8 9 10 11 12 13 14 15 16 17 18 19 20 21 22 23 24 25 26 27 28 29 30 31 32 33 34 35 36 37 38 39 40 41 42 43 44 45 46 47 48 49 50
000
FPUS83 KFGF 140610
OPUFGF
PRAIRIE TO PINES WEATHER ROUNDUP
NATIONAL WEATHER SERVICE EASTERN NORTH DAKOTA/GRAND FORKS ND
1200 AM CST THU DEC 14 2017

 **SATELLITE DATA USED TO AUGMENT SKY COVER AT AUTOMATED STATIONS**
 *****  WEATHER ACROSS EASTERN NORTH DAKOTA  *****

CITY           SKY/WX    TMP DP  RH WIND       PRES   REMARKS
GRAND FORKS    CLOUDY    17  14  88 W12       30.00S WCI   4
6HR MIN TEMP:  17; 6HR MAX TEMP:  20; 6HR PCP: TRACE;

GRND FORKS AFB CLOUDY    16  11  81 N5        30.00S WCI   9
GRND FORKS NWS   N/A     18 N/A N/A NW10        N/A  WCI   6
BUXTON         NOT AVBL
DEVILS LAKE    CLOUDY    20  18  92 CALM      29.98R
6HR MIN TEMP:  20; 6HR MAX TEMP:  24;

FARGO          CLOUDY    18  13  80 N9        30.02R WCI   7
6HR MIN TEMP:  18; 6HR MAX TEMP:  23; 6HR PCP: TRACE;

WAHPETON ARPT    N/A     19  14  79 N8        30.00S WCI   9
$$

 *****  WEATHER ACROSS CENTRAL AND WESTERN NORTH DAKOTA  *****

CITY           SKY/WX    TMP DP  RH WIND       PRES   REMARKS
JAMESTOWN      CLOUDY    25  24  96 NW5       29.97R WCI  19
6HR MIN TEMP:  25; 6HR MAX TEMP:  28; 6HR PCP: TRACE;

BISMARCK       CLOUDY    32  25  75 NW5       30.00S
6HR MIN TEMP:  32; 6HR MAX TEMP:  36;

MINOT          CLOUDY    31  26  82 W7        29.95R WCI  24
6HR MIN TEMP:  31; 6HR MAX TEMP:  34;

MINOT AFB      CLOUDY    28  25  87 W3        29.93F
6HR MIN TEMP:  28; 6HR MAX TEMP:  33;

GARRISON         N/A     26  24  92 W9        29.96F WCI  17
6HR MIN TEMP:  23; 6HR MAX TEMP:  30;

WILLISTON      CLOUDY    36  28  73 NW8       30.02R
6HR MIN TEMP:  33; 6HR MAX TEMP:  36;

DICKINSON      CLOUDY    34  26  72 NW16      29.97F WCI  24
6HR MIN TEMP:  29; 6HR MAX TEMP:  35;

HETTINGER      CLOUDY    34  27  75 W15       30.02F WCI  24
6HR MIN TEMP:  30; 6HR MAX TEMP:  34;

$$

 *****  OTHER OBSERVATIONS NORTHEAST NORTH DAKOTA  *****

CITY           SKY/WX    TMP DP  RH WIND       PRES   REMARKS
WALHALLA       FAIR      18  18 100 CALM      29.98S
LANGDON        CLOUDY    18  18 100 N5        29.94S WCI  11
CAVALIER       CLOUDY    18  14  86 CALM      29.99S
GRAFTON        CLOUDY    16  14  93 CALM      30.01F
CANDO          CLOUDY    21  21 100 CALM      29.97S
FORT TOTTEN      N/A     21  18  88 CALM      29.95S
ROLLA          CLOUDY    23  23 100 S7        29.92F WCI  15
RUGBY          CLOUDY    27  28 100 CALM      29.93F
 ***** THE ABOVE OBSERVATIONS ARE NON NWS ARE NOT QUALITY
        CONTROLLED AND MAY MIS-REPORT RAIN FOR SNOW...
$$

 *****  OTHER OBSERVATIONS SOUTHEAST NORTH DAKOTA *****

CITY           SKY/WX    TMP DP  RH WIND       PRES   REMARKS
COOPERSTOWN    CLOUDY    21  18  86 N6        29.97S WCI  14
VALLEY CITY    CLOUDY    21  21 100 CALM      29.99S
OAKES            N/A     23  23 100 CALM      29.99S
GWINNER          N/A     21  18  86 CALM      29.99S
SHEYENNE NWR     N/A     19  15  84 NE2       29.95S
BUFFALO        NOT AVBL
WYNDMERE       NOT AVBL
 ***** THE ABOVE OBSERVATIONS ARE NON NWS ARE NOT QUALITY
       CONTROLLED AND MAY MIS-REPORT RAIN FOR SNOW...
$$

  *****  WEATHER ACROSS NORTHERN MINNESOTA  *****

CITY           SKY/WX    TMP DP  RH WIND       PRES   REMARKS
FLAG ISLAND    CLOUDY     9   7  92 CALM      29.92S
WARROAD        CLOUDY     7   3  85 CALM      29.95R
ROSEAU         FLURRIES  12   9  85 SW3       29.96R
HALLOCK        CLOUDY    18  14  86 W5        29.99S WCI  11
THF RVR FALLS  NOT AVBL
HALSTAD        NOT AVBL
FOSSTON        FLURRIES  10   9  92 W5        29.97R WCI   2
BAUDETTE       CLOUDY     5   2  87 SW5       29.92F WCI  -4
6HR MIN TEMP:   2; 6HR MAX TEMP:  11;

WASKISH        FLURRIES  10  10 100 CALM      29.94F
CROOKSTON      FLURRIES  16  12  86 CALM      30.00F
$$
  *****  WEATHER ACROSS CENTRAL AND WEST MINNESOTA  *****

CITY           SKY/WX    TMP DP  RH WIND       PRES   REMARKS
BEMIDJI        FLURRIES  12   9  88 NW3       29.93S
6HR MIN TEMP:  12; 6HR MAX TEMP:  15;

PARK RAPIDS    CLOUDY    14  10  84 W6        29.93F WCI   5
6HR MIN TEMP:  14; 6HR MAX TEMP:  17;

WADENA         FLURRIES  14  10  85 CALM      29.94F
DETROIT LAKES  CLOUDY    16  14  93 NW5       29.96S WCI   9
MOORHEAD       MIX PCPN  16  12  86 CALM      30.02R
FERGUS FALLS   CLOUDY    18  12  79 CALM      30.00F
ELBOW LAKE     CLOUDY    18  15  86 NW3       29.97F
6HR MIN TEMP:  18; 6HR MAX TEMP:  22;

MORRIS MN      CLOUDY    19  16  86 NW6       29.98S WCI  11
STAPLES        FLURRIES  14  10  85 CALM      29.95F
WHEATON        CLOUDY    19  16  86 NW3       30.03R
$$
  *****  WEATHER ELSEWHERE ACROSS MINNESOTA  *****

CITY           SKY/WX    TMP DP  RH WIND       PRES   REMARKS
DULUTH         MOCLDY     9   8  96 NW3       29.91R
6HR MIN TEMP:   4; 6HR MAX TEMP:  18; 6HR PCP: TRACE;

INTRNTL FALLS  CLOUDY    14  10  84 W6        29.92R WCI   5
6HR MIN TEMP:  13; 6HR MAX TEMP:  17;

ELY            FLURRIES   9   7  92 CALM      29.90S
CLOQUET        FAIR       9   5  85 CALM      29.92R
BRAINERD       CLOUDY    17  12  80 NW9       29.96R WCI   6
6HR MIN TEMP:  15; 6HR MAX TEMP:  18;

HIBBING        LGT SNOW  14  11  87 N3        29.91R FOG
6HR MIN TEMP:  14; 6HR MAX TEMP:  17; 6HR PCP: TRACE;

ALEXANDRIA     CLOUDY    18  13  80 N3        29.96S
6HR MIN TEMP:  18; 6HR MAX TEMP:  22;

SAINT CLOUD    FAIR      10   7  87 CALM      29.97R
6HR MIN TEMP:   9; 6HR MAX TEMP:  20;

MINNEAPOLIS    MOCLDY    17  14  88 W3        29.97R
6HR MIN TEMP:  17; 6HR MAX TEMP:  24;

$$

  *****  WEATHER ACROSS SOUTH DAKOTA  *****

CITY           SKY/WX    TMP DP  RH WIND       PRES   REMARKS
SIOUX FALLS    CLOUDY    30  26  85 NW7       29.99R WCI  23
6HR MIN TEMP:  30; 6HR MAX TEMP:  35; 6HR PCP: TRACE;

BROOKINGS      CLOUDY    26  23  88 N8        29.97S WCI  18
WATERTOWN      CLOUDY    25  24  96 N6        29.95S WCI  18
6HR MIN TEMP:  25; 6HR MAX TEMP:  30;

HURON          CLOUDY    33  26  75 W3        30.00R
6HR MIN TEMP:  33; 6HR MAX TEMP:  36;

SISSETON         N/A     21  17  84 N7        29.99R WCI  12
ABERDEEN       CLOUDY    28  28 100 CALM      30.00R
6HR MIN TEMP:  28; 6HR MAX TEMP:  35; 6HR PCP:  0.01;

MITCHELL       CLOUDY    35  25  66 NW8       30.03R
PIERRE         FAIR      29  26  89 W3        30.03F
6HR MIN TEMP:  27; 6HR MAX TEMP:  34;

MOBRIDGE       FAIR      26  23  88 NW7       29.98S WCI  18
RAPID CITY     CLOUDY    36  27  69 NW21G29   30.09R
6HR MIN TEMP:  36; 6HR MAX TEMP:  40; 6HR PCP: TRACE;

$$

  *****  SOME WEATHER IN NEARBY STATES *****

CITY           SKY/WX    TMP DP  RH WIND       PRES   REMARKS
GLASGOW MT     FAIR      31  25  78 NW13      30.14R WCI  21
6HR MIN TEMP:  29; 6HR MAX TEMP:  36;

GREAT FALLS MT FAIR      22  17  81 W8        30.36R WCI  12
6HR MIN TEMP:  22; 6HR MAX TEMP:  32;

CHEYENNE WY    MIX PCPN  28  25  88 N20G26    30.14R WCI  15
6HR MIN TEMP:  28; 6HR MAX TEMP:  40; 6HR PCP: TRACE;

SCOTTSBLUFF NE CLOUDY    34  29  82 NW16G22   30.16R WCI  24
6HR MIN TEMP:  34; 6HR MAX TEMP:  44; 6HR PCP: TRACE;

OMAHA NE       CLOUDY    38  27  64 N10       29.99R
6HR MIN TEMP:  38; 6HR MAX TEMP:  43;

DES MOINES IA  CLOUDY    30  20  66 N14       29.96R WCI  19
6HR MIN TEMP:  30; 6HR MAX TEMP:  37;

DAVENPORT IA   CLOUDY    25  15  66 N14       29.92R WCI  13
6HR MIN TEMP:  25; 6HR MAX TEMP:  33;

CHICAGO IL     FLURRIES  28  20  71 N18G28    29.78R WCI  15
6HR MIN TEMP:  28; 6HR MAX TEMP:  31; 6HR PCP: TRACE;

EAU CLAIRE WI  FAIR       7   5  91 CALM      29.93R
6HR MIN TEMP:   7; 6HR MAX TEMP:  19;

LA CROSSE WI   FAIR      15  10  80 NW6       29.95R WCI   6
6HR MIN TEMP:  15; 6HR MAX TEMP:  24;

$$

  *****  SOME NATIONAL WEATHER *****

CITY           SKY/WX    TMP DP  RH WIND       PRES   REMARKS
LA GUARDIA NY  LGT SNOW  24  19  81 S3        29.64F


USA.gov is the U.S. government's official web portal to all federal, state and local government web resources and services.